Location: Newark
(49.3000°N, 9.4667°E)
Time: 15:29:04
(UTC+00:00)

N. Korean satellite - Visible Passes

Search period start: 22 February 2019 00:00
Search period end: 04 March 2019 00:00
Orbit: 456 x 510 km, 97.2° (Epoch: 21 February)

Date Brightness Start Highest point End Pass type
(mag) Time Alt. Az. Time Alt. Az. Time Alt. Az.
22 Feb 8.0 05:19:29 10° NNE 05:22:48 41° E 05:26:04 10° S visible
22 Feb 9.7 17:33:00 10° SW 17:35:53 22° W 17:38:44 10° NW visible
23 Feb 9.3 04:55:09 10° NE 04:57:55 22° E 05:00:38 10° SSE visible
24 Feb 10.2 04:31:35 10° ENE 04:32:56 12° E 04:34:17 10° ESE visible
25 Feb 6.7 05:38:32 10° NNE 05:42:00 74° ESE 05:45:25 10° S visible
25 Feb 10.2 17:53:21 10° WSW 17:55:13 13° W 17:57:04 10° WNW visible
26 Feb 8.3 05:13:57 10° NNE 05:17:11 36° E 05:20:22 10° SSE visible
26 Feb 9.5 17:27:17 10° SSW 17:30:16 24° W 17:33:15 10° NW visible
27 Feb 9.6 04:49:43 10° NE 04:52:16 19° E 04:54:48 10° SE visible
28 Feb 10.4 04:26:47 10° E 04:27:16 10° E 04:27:45 10° E visible
01 Mar 10.1 17:47:25 10° SW 17:49:34 15° W 17:51:42 10° NW visible
02 Mar 8.7 05:08:24 10° NNE 05:11:31 31° E 05:14:36 10° SSE visible
03 Mar 9.8 04:44:16 10° NE 04:46:35 17° E 04:48:53 10° SE visible
